Location: Newark
(45.8944°N, 12.5886°E)
Time: 15:44:59
(UTC+00:00)

ISS - Visible Passes

Search period start: 27 January 2020 00:00
Search period end: 06 February 2020 00:00
Orbit: 416 x 423 km, 51.6° (Epoch: 28 January)

Date Brightness Start Highest point End Pass type
(mag) Time Alt. Az. Time Alt. Az. Time Alt. Az.
27 Jan -3.4 16:39:28 10° WSW 16:42:49 61° NNW 16:46:12 10° ENE visible
27 Jan -2.0 18:17:01 10° WNW 18:19:20 27° NNW 18:19:20 27° NNW visible
28 Jan -2.5 17:29:18 10° WNW 17:32:24 32° N 17:33:46 23° NE visible
28 Jan -0.3 19:06:38 10° NW 19:06:44 11° NW 19:06:44 11° NW visible
29 Jan -2.7 16:41:34 10° W 16:44:46 37° NNW 16:47:57 10° NE visible
29 Jan -2.0 18:19:03 10° WNW 18:21:10 26° NNW 18:21:10 26° NNW visible
30 Jan -2.5 17:31:25 10° WNW 17:34:27 29° N 17:35:36 23° NE visible
30 Jan -0.4 19:08:22 10° WNW 19:08:34 11° WNW 19:08:34 11° WNW visible
31 Jan -2.5 16:43:43 10° WNW 16:46:45 30° N 16:49:48 10° ENE visible
31 Jan -2.3 18:20:50 10° NW 18:23:01 31° NNW 18:23:01 31° NNW visible
01 Feb -2.8 17:33:16 10° WNW 17:36:26 35° NNE 17:37:31 27° NE visible
01 Feb -0.4 19:10:04 10° WNW 19:10:29 13° WNW 19:10:29 13° WNW visible
02 Feb -2.6 16:45:40 10° WNW 16:48:44 31° N 16:51:48 10° ENE visible
02 Feb -2.9 18:22:30 10° WNW 18:25:01 46° NW 18:25:01 46° NW visible
03 Feb -3.5 17:34:56 10° WNW 17:38:17 54° NNE 17:39:38 31° E visible
03 Feb -0.5 19:11:58 10° WNW 19:12:36 14° W 19:12:36 14° W visible
04 Feb -3.2 16:47:22 10° NW 16:50:37 42° NNE 16:53:52 10° E visible
04 Feb -2.8 18:24:13 10° WNW 18:27:19 45° SW 18:27:19 45° SW visible
05 Feb -3.6 17:36:33 10° WNW 17:39:56 72° SSW 17:42:10 19° SE visible
05 Feb -0.4 19:14:54 10° WSW 19:15:10 11° WSW 19:15:10 11° WSW visible
